SB KEPS @ AMSAT $ORB12332.O Orbital Elements 12332.OSCAR
HR AMSAT ORBITAL ELEMENTS FOR OSCAR SATELLITES FROM WA5QGD FORT WORTH,TX November 27, 2012 Send SUBSCRIBE KEPS/UNSUBSCRIBE KEPS to [email protected] only BID: ORB12332.O TO ALL RADIO AMATEURS BT
Satellite: AO-07 Catalog number: 07530 Epoch time: 12332.42723162 Element set: 541 Inclination: 101.4144 deg RA of node: 323.4033 deg Eccentricity: 0.0011816 Arg of perigee: 323.5936 deg Mean anomaly: 036.4337 deg Mean motion: 12.53593046 rev/day Decay rate: -2.7e-07 rev/day^2 Epoch rev: 74050 Checksum: 252
Satellite: FO-29 Catalog number: 24278 Epoch time: 12332.39199657 Element set: 985 Inclination: 098.5847 deg RA of node: 051.6924 deg Eccentricity: 0.0350373 Arg of perigee: 327.0073 deg Mean anomaly: 030.9630 deg Mean motion: 13.52992849 rev/day Decay rate: 2.8e-07 rev/day^2 Epoch rev: 80402 Checksum: 335
Satellite: SO-33 Catalog number: 25509 Epoch time: 12331.78401742 Element set: 375 Inclination: 031.4296 deg RA of node: 133.4595 deg Eccentricity: 0.0352070 Arg of perigee: 186.2589 deg Mean anomaly: 173.3556 deg Mean motion: 14.28917930 rev/day Decay rate: 8.17e-06 rev/day^2 Epoch rev: 73592 Checksum: 322
Satellite: RS-22 Catalog number: 27939 Epoch time: 12332.40118970 Element set: 942 Inclination: 097.7985 deg RA of node: 164.7777 deg Eccentricity: 0.0014268 Arg of perigee: 105.4579 deg Mean anomaly: 254.8202 deg Mean motion: 14.64241726 rev/day Decay rate: 8.30e-06 rev/day^2 Epoch rev: 48976 Checksum: 341
Satellite: VO-52 Catalog number: 28650 Epoch time: 12332.25218861 Element set: 273 Inclination: 097.5835 deg RA of node: 355.1397 deg Eccentricity: 0.0025209 Arg of perigee: 223.4457 deg Mean anomaly: 136.4741 deg Mean motion: 14.83412527 rev/day Decay rate: 2.210e-05 rev/day^2 Epoch rev: 40914 Checksum: 294
Satellite: HO-68 Catalog number: 36122 Epoch time: 12332.32713935 Element set: 47 Inclination: 100.3401 deg RA of node: 028.2241 deg Eccentricity: 0.0007912 Arg of perigee: 096.2104 deg Mean anomaly: 263.9906 deg Mean motion: 13.16300277 rev/day Decay rate: -4.4e-07 rev/day^2 Epoch rev: 14185 Checksum: 256
/EX SB KEPS @ AMSAT $ORB12332.D Orbital Elements 12332.MICROS
HR AMSAT ORBITAL ELEMENTS FOR THE MICROSATS FROM WA5QGD FORT WORTH,TX November 27, 2012 Send SUBSCRIBE KEPS/UNSUBSCRIBE KEPS to [email protected] only BID: ORB12332.D TO ALL RADIO AMATEURS BT
Satellite: UO-11 Catalog number: 14781 Epoch time: 12331.52374453 Element set: 33 Inclination: 097.9328 deg RA of node: 029.4523 deg Eccentricity: 0.0008316 Arg of perigee: 218.7158 deg Mean anomaly: 141.3458 deg Mean motion: 14.80675253 rev/day Decay rate: 6.56e-06 rev/day^2 Epoch rev: 54394 Checksum: 304
Satellite: AO-16 Catalog number: 20439 Epoch time: 12331.88101791 Element set: 614 Inclination: 098.4473 deg RA of node: 270.8371 deg Eccentricity: 0.0011760 Arg of perigee: 040.1848 deg Mean anomaly: 320.0195 deg Mean motion: 14.32116163 rev/day Decay rate: 2.54e-06 rev/day^2 Epoch rev: 19328 Checksum: 276
Satellite: LO-19 Catalog number: 20442 Epoch time: 12331.87951302 Element set: 545 Inclination: 098.4161 deg RA of node: 273.2860 deg Eccentricity: 0.0012529 Arg of perigee: 032.0694 deg Mean anomaly: 328.1245 deg Mean motion: 14.32330865 rev/day Decay rate: 2.18e-06 rev/day^2 Epoch rev: 19347 Checksum: 286
Satellite: AO-27 Catalog number: 22825 Epoch time: 12332.54466449 Element set: 252 Inclination: 098.5932 deg RA of node: 272.9566 deg Eccentricity: 0.0008511 Arg of perigee: 154.4840 deg Mean anomaly: 205.6764 deg Mean motion: 14.29513634 rev/day Decay rate: 1.02e-06 rev/day^2 Epoch rev: 99981 Checksum: 321
Satellite: IO-26 Catalog number: 22826 Epoch time: 12331.95420406 Element set: 6 Inclination: 098.5866 deg RA of node: 272.7038 deg Eccentricity: 0.0009124 Arg of perigee: 150.4032 deg Mean anomaly: 209.7666 deg Mean motion: 14.29792866 rev/day Decay rate: 2.35e-06 rev/day^2 Epoch rev: 99986 Checksum: 327
Satellite: GO-32 Catalog number: 25397 Epoch time: 12332.00095619 Element set: 932 Inclination: 098.3846 deg RA of node: 302.8756 deg Eccentricity: 0.0001742 Arg of perigee: 136.7669 deg Mean anomaly: 223.3660 deg Mean motion: 14.23309153 rev/day Decay rate: -6.0e-08 rev/day^2 Epoch rev: 74718 Checksum: 306
Satellite: NO-44 Catalog number: 26931 Epoch time: 12332.16273313 Element set: 195 Inclination: 067.0525 deg RA of node: 060.2795 deg Eccentricity: 0.0004948 Arg of perigee: 257.2828 deg Mean anomaly: 102.7720 deg Mean motion: 14.29864723 rev/day Decay rate: 1.74e-06 rev/day^2 Epoch rev: 58254 Checksum: 305
Satellite: SO-50 Catalog number: 27607 Epoch time: 12331.62252392 Element set: 924 Inclination: 064.5555 deg RA of node: 160.6918 deg Eccentricity: 0.0070755 Arg of perigee: 215.2482 deg Mean anomaly: 144.3898 deg Mean motion: 14.72654592 rev/day Decay rate: 8.91e-06 rev/day^2 Epoch rev: 53388 Checksum: 329
Satellite: CO-55 Catalog number: 27844 Epoch time: 12332.05993947 Element set: 517 Inclination: 098.7029 deg RA of node: 338.0790 deg Eccentricity: 0.0010324 Arg of perigee: 109.6420 deg Mean anomaly: 250.5872 deg Mean motion: 14.21121936 rev/day Decay rate: 3.83e-06 rev/day^2 Epoch rev: 48802 Checksum: 307
Satellite: CO-57 Catalog number: 27848 Epoch time: 12331.03639167 Element set: 465 Inclination: 098.7106 deg RA of node: 336.4794 deg Eccentricity: 0.0010318 Arg of perigee: 118.0010 deg Mean anomaly: 242.2207 deg Mean motion: 14.20860027 rev/day Decay rate: 3.32e-06 rev/day^2 Epoch rev: 48781 Checksum: 287
Satellite: AO-51 Catalog number: 28375 Epoch time: 12331.49396573 Element set: 423 Inclination: 098.1706 deg RA of node: 289.4222 deg Eccentricity: 0.0082763 Arg of perigee: 270.0461 deg Mean anomaly: 089.1261 deg Mean motion: 14.41037342 rev/day Decay rate: 3.26e-06 rev/day^2 Epoch rev: 44214 Checksum: 294
Satellite: CP3 Catalog number: 31129 Epoch time: 12332.47433519 Element set: 323 Inclination: 097.8871 deg RA of node: 330.6877 deg Eccentricity: 0.0100369 Arg of perigee: 335.8868 deg Mean anomaly: 023.7602 deg Mean motion: 14.53360807 rev/day Decay rate: 1.288e-05 rev/day^2 Epoch rev: 29769 Checksum: 325
Satellite: CO-65 Catalog number: 32785 Epoch time: 12332.17011833 Element set: 479 Inclination: 097.7807 deg RA of node: 029.2169 deg Eccentricity: 0.0013317 Arg of perigee: 246.8221 deg Mean anomaly: 113.1600 deg Mean motion: 14.83423704 rev/day Decay rate: 1.526e-05 rev/day^2 Epoch rev: 24792 Checksum: 293
Satellite: PRISM Catalog number: 33493 Epoch time: 12332.46541984 Element set: 295 Inclination: 098.1910 deg RA of node: 117.2512 deg Eccentricity: 0.0019300 Arg of perigee: 126.3480 deg Mean anomaly: 233.9480 deg Mean motion: 14.84903160 rev/day Decay rate: 5.036e-05 rev/day^2 Epoch rev: 20797 Checksum: 286
Satellite: SOHLA-1 Catalog number: 33496 Epoch time: 12331.85080085 Element set: 897 Inclination: 098.1185 deg RA of node: 082.6569 deg Eccentricity: 0.0005570 Arg of perigee: 242.6930 deg Mean anomaly: 117.3705 deg Mean motion: 14.70130252 rev/day Decay rate: 7.27e-06 rev/day^2 Epoch rev: 20614 Checksum: 293
Satellite: SO-67 Catalog number: 35870 Epoch time: 12332.49684069 Element set: 550 Inclination: 097.2160 deg RA of node: 002.4771 deg Eccentricity: 0.0001857 Arg of perigee: 007.0569 deg Mean anomaly: 129.8563 deg Mean motion: 15.25328586 rev/day Decay rate: 6.382e-05 rev/day^2 Epoch rev: 17749 Checksum: 332
Satellite: TISAT-1 Catalog number: 36799 Epoch time: 12332.16685445 Element set: 566 Inclination: 098.0507 deg RA of node: 049.6399 deg Eccentricity: 0.0014849 Arg of perigee: 008.9184 deg Mean anomaly: 351.2259 deg Mean motion: 14.82609477 rev/day Decay rate: 3.105e-05 rev/day^2 Epoch rev: 12863 Checksum: 340
Satellite: STUDSAT Catalog number: 36801 Epoch time: 12332.32527964 Element set: 530 Inclination: 098.0596 deg RA of node: 051.3779 deg Eccentricity: 0.0012071 Arg of perigee: 352.4982 deg Mean anomaly: 007.6048 deg Mean motion: 14.86173022 rev/day Decay rate: 9.559e-05 rev/day^2 Epoch rev: 12873 Checksum: 304
Satellite: FO-69 Catalog number: 37227 Epoch time: 12324.39082420 Element set: 0341 Inclination: 071.9700 deg RA of node: 329.4329 deg Eccentricity: 0.0015671 Arg of perigee: 026.5333 deg Mean anomaly: 333.6607 deg Mean motion: 14.77273675 rev/day Decay rate: 9.49e-06 rev/day^2 Epoch rev: 05901 Checksum: 306
Satellite: FO-70 Catalog number: 37380 Epoch time: 12324.35497821 Element set: 0345 Inclination: 071.9737 deg RA of node: 330.2673 deg Eccentricity: 0.0016487 Arg of perigee: 023.0914 deg Mean anomaly: 337.0959 deg Mean motion: 14.77019282 rev/day Decay rate: 9.12e-06 rev/day^2 Epoch rev: 05889 Checksum: 323
Satellite: ALMASAT-1 Catalog number: 38078 Epoch time: 12332.45928797 Element set: 772 Inclination: 069.4770 deg RA of node: 305.7762 deg Eccentricity: 0.0730372 Arg of perigee: 043.2300 deg Mean anomaly: 322.3777 deg Mean motion: 14.15773148 rev/day Decay rate: 2.8922e-04 rev/day^2 Epoch rev: 4060 Checksum: 315
Satellite: XATCOBEO Catalog number: 38082 Epoch time: 12332.31835293 Element set: 728 Inclination: 069.4813 deg RA of node: 297.8827 deg Eccentricity: 0.0668293 Arg of perigee: 038.8511 deg Mean anomaly: 325.8647 deg Mean motion: 14.32072719 rev/day Decay rate: 7.5854e-04 rev/day^2 Epoch rev: 4080 Checksum: 336
/EX SB KEPS @ AMSAT $ORB12332.W Orbital Elements 12332.WEATHER
HR AMSAT ORBITAL ELEMENTS FOR WEATHER SATELLITES FROM WA5QGD FORT WORTH,TX November 27, 2012 Send SUBSCRIBE KEPS/UNSUBSCRIBE KEPS to [email protected] only BID: ORB12332.W TO ALL RADIO AMATEURS BT
Satellite: NOAA-10 Catalog number: 16969 Epoch time: 12332.53716724 Element set: 149 Inclination: 098.5668 deg RA of node: 358.5650 deg Eccentricity: 0.0013038 Arg of perigee: 114.7262 deg Mean anomaly: 245.5290 deg Mean motion: 14.27598678 rev/day Decay rate: 1.90e-06 rev/day^2 Epoch rev: 36317 Checksum: 328
